Location: Newark
(46.9000°N, 28.3500°E)
Time: 18:23:07
(UTC+00:00)

Explorer 7 - Pass Details

Date: 27 August 2019
Orbit: 485 x 680 km, 50.3° (Epoch: 15 October)

Event Time Altitude Azimuth Distance (km) Brightness Sun altitude
Rises 09:55:13 0° 287° (WNW) 2,971 10.4 53.1°
Reaches altitude 10° 09:57:38 10° 290° (WNW) 2,033 9.7 53.1°
Maximum altitude 10:02:18 68° 14° (NNE) 664 7.8 53.2°
Drops below altitude 10° 10:06:40 10° 98° (E) 1,908 9.8 53.2°
Sets 10:08:52 0° 101° (E) 2,772 10.5 53.2°
